Showing default

NAVSPASUR ROD 1, 1515

Orbit data source: Space-Track

NAVSPASUR ROD 1, 1515 is a payload satellite owned by NRL (US) in LEO that was launched on Fri, 13 Aug 1965 UTC via a THOR ABLESTAR launch vehicle from the Air Force Western Test Range (AFWTR). Payload-class satellites include a variety of spacecraft equipped with specific instruments for various scientific and technological missions. These include communications satellites like Starlink; space stations such as the ISS; scientific satellites like the Hubble; Earth observation satellites from companies like Planet Labs, Umbra, and HawkEye 360; GPS; miniature CubeSats for education and research; and military/defense satellites.

Loading next visibility...
Identifier
1515, 1965-065G
Orbit
LEO
Last TLE update
21 hours ago
Origin
Manufacturer
NRL
Mission
Defense Calibration
Bus & Motor
LONG ROD, Unknown motor
Mass
3 kg wet, 3 kg dry
Launch date (UTC)
1965-08-13 (60 years ago)
Launch vehicle
THOR ABLESTAR
Launch site
Air Force Western Test Range (AFWTR)
Object type
Payload
Rocket body
Debris
Shape & HBR
Sphere, 0.4 m
Radar Cross Section
0.126 m², Small (<0.1 m²)

Expand to show TLE details & history

TLE from 21 hours ago
0 NAVSPASUR ROD 1
1 01515U 65065G   25191.51222603  .00000344  00000-0  51601-3 0  9990
2 01515  89.9992 213.7819 0056448 222.2587 267.1488 13.50630110934198
Epoch: 2025-07-10T12:17Z
TLE epoch observation values (Epoch: 2025-07-10T12:17:36.329Z)
Latitude
51.33235°
Longitude
-79.29791°
Altitude
1,080.604 km
Speed
7.315 km/s
True Right ascension
02h 15m 07s
True Declination
51° 10' 18"
Sunlit
Object was in daylight at epoch
Visualization orbit readout
Latitude
17.88435°
Longitude
100.70327°
Altitude
1,111.33 km
Speed
7.279 km/s
Apparent Right ascension
12h 20m 05s
Apparent Declination
-10° 22' 05"
Sunlit
Object is in daylight
Visualization observer readout
Local Sidereal Time
21:22:18
Azimuth
294.408° NW
Elevation
-40.851°
Doppler factor
1
Orbital elements
Apogee altitude
1,109.016 km
Perigee altitude
1,024.964 km
Semi-major axis
7,445.127 km
Eccentricity
0.00564
Inclination
89.9992°
RAAN
213.7819°
Arg. of periapsis
222.2587°
True anomaly
Unknown
Mean anomaly
267.1488°
Eccentric anomaly
Unknown
Mean motion
3.37859 °/min
Orbital period
106.55 mins
BSTAR
0.00051601
Loading maneuver chart data...
Loading SW <> Apogee altitude chart data...
Loading historical data...
Loading historical data...
Loading historical data...
Loading historical data...
Loading historical data...
Loading historical data...
Loading historical data...

NAVSPASUR ROD 1 Visibility forecast

Observer location: undefined°, undefined°

Span
Click to sort rows by Start time (UTC) header in descending order
Start Az.
Max El. time (UTC)
Max El. Az.
Max El.
End time (UTC)
End Az.
11 mins2025-07-11 13:08:39.196Z17.066° NNE2025-07-11 13:14:39.196Z90.707° ESE34.383°2025-07-11 13:19:39.196Z153.05° SSE
9 mins2025-07-11 14:56:39.196Z331.688° NNW2025-07-11 15:00:39.196Z283.272° WNW26.235°2025-07-11 15:05:39.196Z228.84° WSW
11 mins2025-07-12 01:06:39.196Z143.673° SSE2025-07-12 01:11:39.196Z80.217° E34.711°2025-07-12 01:17:39.196Z12.274° NNE
10 mins2025-07-12 02:53:39.196Z224.501° SW2025-07-12 02:58:39.196Z284.455° WNW27.004°2025-07-12 03:03:39.196Z335.196° NNW
|